SCP
0 0 0 1 1 1 1 0 0 0 0 0 0 0 0 0 0 0 0 0 0 0 0 0 0 0 0 0 0 0 0 0 0 0 0 0 0 0 0 0 0 0 0
1 1 1 1 1 1 1 1 0 0 0 0 0 0 0 0 0 0 0 0 0 0 0 0 0 0 0 0 0 0 0 0 0 0 0 0 0 0 0 0 0 0 0
2 2 1 1 1 1 0 0 0 0 0 0 0 0 0 0 0 0 0 0 0 0 0 0 0 0 0 0 0 0 0 0 0 0 0 0 0 0 0 0 0 0 0
4 3 2 2 1 1 1 0 0 0 0 0 0 0 0 0 0 0 0 0 0 0 0 0 0 0 0 0 0 0 0 0 0 0 0 0 0 0 0 0 0 0 0
3 3 3 3 3 2 1 1 1 0 0 0 0 0 0 0 0 1 1 0 0 0 0 0 0 0 0 0 0 0 0 0 0 0 0 0 0 0 0 0 0 0 0
1 3 4 2 4 3 2 2 1 0 1 0 1 0 0 0 1 1 1 1 0 0 0 0 0 0 0 0 0 0 0 0 0 0 0 0 0 0 0 0 0 0 0
0 1 3 3 3 0 1 1 1 0 0 0 0 0 1 1 0 0 1 1 1 0 0 0 0 0 0 0 0 0 0 0 0 0 0 0 0 0 0 0 0 0 0
0 0 2 2 2 1 1 1 1 1 0 1 0 0 0 0 0 0 0 0 0 0 0 0 0 0 0 0 0 0 0 0 0 0 0 0 0 0 0 0 0 0 0
0 0 0 1 1 0 1 0 1 2 1 1 1 0 0 0 0 0 0 0 0 0 0 0 0 0 0 0 0 0 0 0 0 0 0 0 0 0 0 0 0 0 0
0 0 0 0 0 0 0 0 1 2 1 0 1 0 0 0 0 0 0 0 0 0 0 0 0 0 0 0 0 0 0 0 0 0 0 0 0 0 0 0 0 0 0
0 0 0 0 0 0 0 1 1 1 1 1 1 1 0 0 0 0 0 0 0 0 0 0 0 0 0 0 0 0 0 0 0 0 0 0 0 0 0 0 0 0 0
0 -0 -0 0 0 0 0 0 1 1 1 1 1 1 1 1 1 0 0 0 0 0 0 0 0 0 0 0 0 0 0 0 0 0 0 0 0 0 0 0 0 0 0
-0 0 -0 -0 0 0 0 0 1 1 1 0 1 1 1 1 0 0 0 0 0 0 0 0 0 0 0 0 0 0 0 0 0 0 0 0 0 0 0 0 0 0 0
0 -0 0 0 0 0 0 0 0 0 0 0 0 1 1 1 0 0 0 0 0 0 0 0 0 0 0 0 0 0 0 0 0 0 0 0 0 0 0 0 0 0 0
0 -0 0 0 0 0 0 0 -0 0 0 0 0 1 1 1 1 0 0 0 0 0 0 0 0 0 0 0 0 0 0 0 0 0 0 0 0 0 0 0 0 0 0
0 0 0 0 0 0 0 0 0 0 0 -0 -0 0 1 1 1 0 0 0 0 0 0 0 0 0 0 0 0 0 0 0 0 0 0 0 0 0 0 0 0 0 0
-0 -0 -0 -0 0 0 0 0 0 0 0 0 -0 0 0 1 0 0 0 0 0 0 0 0 0 0 0 0 0 0 0 0 0 0 0 0 0 0 0 0 0 0 0
-0 -0 -0 -0 0 0 0 0 0 0 0 0 -0 -0 0 1 0 0 0 0 0 0 0 0 0 0 0 0 0 0 0 0 0 0 -0 0 0 0 0 0 0 0 0
-0 -0 -0 0 0 0 0 0 0 0 0 0 0 -0 0 0 0 0 0 0 0 0 0 0 0 0 0 0 0 0 0 0 0 0 0 0 0 0 0 0 0 0 0
-0 0 0 0 0 0 0 0 0 0 0 0 0 0 0 0 0 0 0 0 0 0 0 0 0 0 0 0 0 0 0 0 0 0 0 -0 0 0 0 0 0 -0 0
0 0 0 0 0 0 0 0 0 0 0 0 0 0 0 0 0 0 0 0 0 0 0 0 0 0 0 0 0 0 0 0 -0 0 -0 -0 -0 -0 -0 -0 0 -0 0
0 0 0 0 0 0 0 0 0 0 0 0 0 0 0 0 0 0 0 0 0 0 0 0 0 0 0 0 0 0 0 0 0 0 -0 -0 0 -0 -0 -0 0 0 -0
0 0 0 0 0 0 0 0 0 0 0 0 0 0 0 0 0 0 0 0 0 0 0 0 0 0 0 -0 -0 0 0 0 0 -0 0 0 -0 -0 0 0 0 0 -0
0 0 0 0 0 0 0 0 0 0 0 0 0 0 0 0 0 0 0 0 0 0 0 0 0 0 -0 -0 -0 0 0 0 0 0 -0 -0 0 0 0 0 0 -0 -0
0 0 0 0 0 0 0 0 0 0 0 0 0 0 0 0 0 -0 0 0 0 0 0 0 -0 -0 0 -0 -0 0 0 0 0 -0 0 0 0 -0 0 0 0 -0 0
0 0 0 0 0 0 0 0 0 0 0 0 0 0 0 0 0 0 0 0 0 0 0 0 0 0 0 -0 -0 0 0 0 0 0 0 0 0 0 0 0 0 0 0
Wind_Speed_500mb
24 27 27 32 40 37 37 36 30 24 33 41 31 30 36 24 31 20 20 23 28 24 25 24 21 18 15 13 13 17 24 30 35 44 48 53 55 50 37 31 29 29 21
37 31 29 40 44 41 40 35 36 30 28 27 31 24 32 35 40 36 33 33 28 26 32 33 26 23 16 19 12 18 25 34 39 45 48 53 52 40 33 33 34 34 35
54 46 38 38 41 54 49 39 38 40 51 36 32 34 37 35 36 41 42 44 36 29 33 30 26 26 13 22 21 27 29 33 36 45 49 52 44 31 29 28 28 26 29
53 64 54 50 52 47 52 67 56 48 36 54 45 42 47 47 35 42 50 42 38 34 36 29 27 18 14 26 25 31 33 34 41 44 48 50 46 26 27 30 27 32 30
40 63 65 59 63 56 51 48 53 62 53 37 51 50 51 41 39 43 48 51 45 44 40 29 18 16 20 32 32 38 34 36 40 44 49 47 44 32 32 29 28 30 31
46 47 65 68 64 61 52 53 52 55 56 60 48 54 49 44 51 53 57 58 47 46 40 30 27 24 27 40 41 42 35 37 37 41 47 42 39 29 28 32 30 32 33
44 43 51 58 66 48 49 50 58 61 56 59 57 52 50 47 51 42 37 50 54 50 35 33 32 29 33 40 46 42 41 33 31 39 42 40 37 27 28 28 29 32 30
38 35 24 43 58 53 67 50 50 58 57 60 65 57 54 47 41 38 33 42 48 40 37 40 30 33 28 37 42 40 36 32 27 37 40 35 34 22 25 27 30 31 33
43 50 53 38 33 49 59 55 62 60 58 65 66 61 36 36 46 33 33 50 41 48 40 31 30 28 35 40 45 35 32 20 28 35 32 33 24 22 25 26 29 32 33
48 47 50 51 53 49 51 64 65 59 57 72 69 72 65 38 35 19 28 40 52 48 47 42 35 33 35 48 36 32 18 17 24 27 27 28 20 23 27 28 29 32 32
50 49 44 44 43 49 54 59 55 55 64 68 67 72 71 72 70 36 25 39 45 45 48 45 42 51 46 42 34 23 13 14 21 23 27 28 26 27 27 27 31 30 29
52 50 47 45 38 42 44 66 62 88 66 67 68 62 77 66 64 53 43 42 52 51 58 52 53 55 44 35 34 19 8 12 16 23 24 26 27 28 27 29 33 30 29
63 62 61 60 54 43 47 53 58 67 68 62 69 60 55 58 56 45 50 46 57 54 50 55 54 46 36 36 29 11 5 10 20 24 28 28 28 28 29 31 34 34 34
73 67 62 55 46 40 34 41 60 56 60 65 66 60 58 51 41 44 48 52 49 54 60 59 55 43 44 38 28 9 5 13 23 31 29 30 29 29 32 32 37 35 36
74 73 69 63 55 52 47 41 56 69 67 60 66 65 57 48 44 38 39 50 52 56 67 55 42 52 49 39 29 12 8 13 29 37 33 33 32 31 34 34 39 41 38
79 68 63 61 59 52 47 48 49 57 56 81 67 66 62 53 53 50 48 48 49 51 60 69 59 51 53 42 30 16 16 16 26 37 41 36 36 35 35 35 40 44 43
82 73 63 62 62 58 44 44 45 53 82 87 75 65 66 55 56 49 51 49 35 47 56 50 53 46 56 46 30 24 19 15 19 31 41 35 35 42 40 36 40 44 43
88 81 79 77 71 61 49 50 46 55 65 56 64 66 63 55 58 50 51 47 41 45 53 47 48 57 56 41 28 31 24 15 13 24 39 35 37 45 45 42 38 40 42
83 76 71 63 60 59 55 56 52 57 58 59 63 75 71 64 58 56 51 46 46 49 53 54 54 60 55 42 39 31 23 20 8 18 31 32 36 43 48 46 41 40 35
71 66 54 51 52 53 54 61 57 50 49 54 61 67 64 62 60 55 53 51 52 53 53 55 59 64 54 44 44 39 34 22 11 13 24 34 33 44 50 50 48 44 38
57 47 49 48 51 50 55 51 46 49 46 52 59 58 50 58 47 58 57 50 51 45 56 55 70 66 59 59 61 48 31 34 14 10 20 25 36 46 51 52 56 54 43
42 41 45 49 50 44 39 44 44 44 45 45 58 42 42 38 46 44 29 32 40 41 57 69 74 67 66 64 65 52 46 37 29 16 18 26 25 45 54 51 59 57 50
40 39 44 45 45 40 33 34 28 33 39 33 42 35 63 46 38 33 24 39 54 59 53 64 66 65 70 63 61 51 39 21 21 27 16 22 21 41 55 52 57 56 48
36 37 40 35 39 26 22 12 9 25 34 22 17 25 33 39 33 29 26 44 40 46 52 51 48 59 55 49 43 48 34 33 32 22 15 25 17 41 56 61 58 51 45
34 39 28 30 30 18 15 21 19 4 20 23 29 31 50 47 23 29 29 35 52 48 39 51 53 52 46 46 50 56 46 45 35 25 23 21 20 38 50 58 53 46 45
37 25 27 29 29 25 22 14 8 15 47 30 35 37 32 34 29 28 44 52 70 74 60 63 54 58 66 61 53 40 44 38 39 33 20 21 9 18 36 43 49 45 45
Wind_Direction_500mb
280 291 272 249 257 265 268 270 290 287 270 256 247 258 238 254 269 273 261 267 238 252 280 288 262 266 277 286 303 309 320 327 329 336 342 345 346 347 350 351 346 343 322
269 262 265 249 248 253 258 259 263 277 280 253 245 246 234 248 252 267 268 261 241 244 268 268 264 259 267 282 299 308 316 335 327 330 337 342 345 354 360 358 351 352 348
273 258 260 256 257 249 255 259 259 265 262 254 243 244 238 262 244 250 261 263 256 253 268 257 256 256 264 267 289 309 312 327 318 327 336 340 350 357 352 356 353 339 338
269 262 259 264 275 266 254 245 253 261 266 251 245 233 246 268 250 244 251 259 252 256 266 256 260 259 290 248 281 288 293 311 318 322 333 341 342 346 339 342 341 340 338
290 260 265 264 267 260 265 251 243 247 253 258 242 249 252 250 244 245 243 251 249 252 252 242 247 249 246 242 263 272 284 301 313 323 333 340 344 352 348 341 346 334 337
280 278 267 260 261 254 259 261 245 237 245 248 250 255 249 251 245 240 240 241 241 236 234 216 211 219 224 236 251 271 281 300 314 324 334 341 351 352 349 347 340 335 328
283 297 272 267 257 265 261 259 265 258 254 247 249 246 243 246 239 233 241 227 228 229 216 212 210 223 240 255 257 276 280 296 314 328 331 340 340 357 346 340 343 341 337
280 306 313 270 267 262 258 258 257 264 260 254 247 250 243 232 231 227 217 214 215 217 228 209 217 224 251 258 264 271 279 299 323 327 333 342 335 3 338 348 344 339 340
302 299 311 300 294 266 269 255 256 247 258 256 249 240 237 233 229 221 214 212 208 214 231 232 227 247 265 252 257 263 277 306 327 327 339 333 355 2 353 344 348 341 339
307 310 307 308 300 285 263 260 253 250 254 258 247 244 243 239 226 195 225 225 194 236 249 232 228 240 258 239 241 256 284 331 329 337 343 346 1 2 356 351 351 348 342
299 300 312 310 297 290 278 262 258 251 254 254 249 246 247 247 251 237 192 194 200 215 232 220 233 232 238 237 241 252 301 340 342 351 348 355 1 7 5 355 359 352 351
297 302 302 305 314 284 269 274 257 259 243 249 255 252 245 243 243 241 222 216 211 206 205 207 218 223 234 227 245 249 310 344 2 356 6 14 10 10 3 358 3 358 356
302 300 305 305 306 299 281 281 250 232 242 244 248 248 246 247 250 257 229 209 206 208 203 211 215 221 219 229 235 242 352 37 16 18 27 20 15 12 2 3 3 353 355
304 304 307 306 298 290 300 273 236 247 242 246 246 241 243 244 239 244 238 226 204 209 211 216 217 212 222 226 225 227 120 53 39 42 31 24 17 15 12 12 9 8 7
303 304 304 305 302 290 276 279 246 255 256 246 248 238 239 240 237 237 249 249 236 213 219 213 207 212 219 216 214 187 131 88 56 41 33 24 19 18 16 12 14 16 14
304 304 308 303 302 295 275 277 264 241 258 251 245 242 237 231 235 237 242 249 243 239 220 217 212 213 214 205 202 163 142 99 60 43 34 25 25 19 14 13 16 20 17
300 295 295 295 299 299 276 266 270 254 247 249 229 238 238 232 230 235 244 249 244 238 228 220 218 218 206 199 189 155 150 117 68 44 33 30 25 21 15 14 16 20 20
295 292 288 286 290 294 276 264 270 256 237 234 232 230 236 229 228 231 238 244 234 228 229 231 220 204 198 191 178 162 156 154 67 44 32 31 25 16 18 18 18 21 23
295 295 293 288 285 289 282 268 268 268 252 238 230 233 230 230 224 223 233 234 226 226 229 237 207 191 179 169 170 159 174 169 123 51 36 30 28 24 21 22 23 22 22
296 295 291 289 287 289 285 272 263 270 259 246 242 239 233 232 231 227 236 231 222 221 228 226 191 180 175 165 166 162 172 170 155 63 58 47 37 25 25 29 28 24 20
297 293 292 291 294 286 288 264 261 264 256 248 240 229 229 227 228 234 230 227 212 222 217 203 180 176 168 167 162 162 154 158 145 130 73 60 34 30 33 31 31 25 24
297 294 296 301 292 289 270 254 260 256 250 256 246 233 214 233 226 231 220 225 235 230 222 193 182 176 167 156 157 158 151 154 162 161 95 74 36 35 33 32 29 27 27
294 297 301 293 293 282 265 255 255 246 236 250 249 254 244 249 215 210 208 223 220 222 225 195 178 171 158 155 155 160 153 143 154 152 100 84 53 41 38 34 29 31 30
294 293 301 299 293 274 248 225 178 222 221 228 302 190 184 216 208 195 198 208 206 183 177 167 163 156 154 152 154 160 145 138 131 133 110 94 87 54 44 35 32 31 32
282 292 278 291 294 256 175 197 130 146 213 182 158 192 180 214 207 191 195 185 155 138 134 135 148 144 148 151 148 150 142 131 120 128 152 123 118 60 51 35 30 32 38
300 278 276 275 270 171 158 163 140 181 234 211 194 210 205 197 190 198 192 179 143 135 144 143 148 144 139 134 136 136 141 145 124 119 150 136 106 33 57 41 33 43 51
Wind_Speed_850mb
24 27 27 32 40 37 37 36 30 24 33 41 31 30 36 24 31 20 20 23 28 24 25 24 21 18 15 13 13 17 24 30 35 44 48 53 55 50 37 31 29 29 21
37 31 29 40 44 41 40 35 36 30 28 27 31 24 32 35 40 36 33 33 28 26 32 33 26 23 16 19 12 18 25 34 39 45 48 53 52 40 33 33 34 34 35
54 46 38 38 41 54 49 39 38 40 51 36 32 34 37 35 36 41 42 44 36 29 33 30 26 26 13 22 21 27 29 33 36 45 49 52 44 31 29 28 28 26 29
53 64 54 50 52 47 52 67 56 48 36 54 45 42 47 47 35 42 50 42 38 34 36 29 27 18 14 26 25 31 33 34 41 44 48 50 46 26 27 30 27 32 30
40 63 65 59 63 56 51 48 53 62 53 37 51 50 51 41 39 43 48 51 45 44 40 29 18 16 20 32 32 38 34 36 40 44 49 47 44 32 32 29 28 30 31
46 47 65 68 64 61 52 53 52 55 56 60 48 54 49 44 51 53 57 58 47 46 40 30 27 24 27 40 41 42 35 37 37 41 47 42 39 29 28 32 30 32 33
44 43 51 58 66 48 49 50 58 61 56 59 57 52 50 47 51 42 37 50 54 50 35 33 32 29 33 40 46 42 41 33 31 39 42 40 37 27 28 28 29 32 30
38 35 24 43 58 53 67 50 50 58 57 60 65 57 54 47 41 38 33 42 48 40 37 40 30 33 28 37 42 40 36 32 27 37 40 35 34 22 25 27 30 31 33
43 50 53 38 33 49 59 55 62 60 58 65 66 61 36 36 46 33 33 50 41 48 40 31 30 28 35 40 45 35 32 20 28 35 32 33 24 22 25 26 29 32 33
48 47 50 51 53 49 51 64 65 59 57 72 69 72 65 38 35 19 28 40 52 48 47 42 35 33 35 48 36 32 18 17 24 27 27 28 20 23 27 28 29 32 32
50 49 44 44 43 49 54 59 55 55 64 68 67 72 71 72 70 36 25 39 45 45 48 45 42 51 46 42 34 23 13 14 21 23 27 28 26 27 27 27 31 30 29
52 50 47 45 38 42 44 66 62 88 66 67 68 62 77 66 64 53 43 42 52 51 58 52 53 55 44 35 34 19 8 12 16 23 24 26 27 28 27 29 33 30 29
63 62 61 60 54 43 47 53 58 67 68 62 69 60 55 58 56 45 50 46 57 54 50 55 54 46 36 36 29 11 5 10 20 24 28 28 28 28 29 31 34 34 34
73 67 62 55 46 40 34 41 60 56 60 65 66 60 58 51 41 44 48 52 49 54 60 59 55 43 44 38 28 9 5 13 23 31 29 30 29 29 32 32 37 35 36
74 73 69 63 55 52 47 41 56 69 67 60 66 65 57 48 44 38 39 50 52 56 67 55 42 52 49 39 29 12 8 13 29 37 33 33 32 31 34 34 39 41 38
79 68 63 61 59 52 47 48 49 57 56 81 67 66 62 53 53 50 48 48 49 51 60 69 59 51 53 42 30 16 16 16 26 37 41 36 36 35 35 35 40 44 43
82 73 63 62 62 58 44 44 45 53 82 87 75 65 66 55 56 49 51 49 35 47 56 50 53 46 56 46 30 24 19 15 19 31 41 35 35 42 40 36 40 44 43
88 81 79 77 71 61 49 50 46 55 65 56 64 66 63 55 58 50 51 47 41 45 53 47 48 57 56 41 28 31 24 15 13 24 39 35 37 45 45 42 38 40 42
83 76 71 63 60 59 55 56 52 57 58 59 63 75 71 64 58 56 51 46 46 49 53 54 54 60 55 42 39 31 23 20 8 18 31 32 36 43 48 46 41 40 35
71 66 54 51 52 53 54 61 57 50 49 54 61 67 64 62 60 55 53 51 52 53 53 55 59 64 54 44 44 39 34 22 11 13 24 34 33 44 50 50 48 44 38
57 47 49 48 51 50 55 51 46 49 46 52 59 58 50 58 47 58 57 50 51 45 56 55 70 66 59 59 61 48 31 34 14 10 20 25 36 46 51 52 56 54 43
42 41 45 49 50 44 39 44 44 44 45 45 58 42 42 38 46 44 29 32 40 41 57 69 74 67 66 64 65 52 46 37 29 16 18 26 25 45 54 51 59 57 50
40 39 44 45 45 40 33 34 28 33 39 33 42 35 63 46 38 33 24 39 54 59 53 64 66 65 70 63 61 51 39 21 21 27 16 22 21 41 55 52 57 56 48
36 37 40 35 39 26 22 12 9 25 34 22 17 25 33 39 33 29 26 44 40 46 52 51 48 59 55 49 43 48 34 33 32 22 15 25 17 41 56 61 58 51 45
34 39 28 30 30 18 15 21 19 4 20 23 29 31 50 47 23 29 29 35 52 48 39 51 53 52 46 46 50 56 46 45 35 25 23 21 20 38 50 58 53 46 45
37 25 27 29 29 25 22 14 8 15 47 30 35 37 32 34 29 28 44 52 70 74 60 63 54 58 66 61 53 40 44 38 39 33 20 21 9 18 36 43 49 45 45
Wind_Direction_850mb
280 291 272 249 257 265 268 270 290 287 270 256 247 258 238 254 269 273 261 267 238 252 280 288 262 266 277 286 303 309 320 327 329 336 342 345 346 347 350 351 346 343 322
269 262 265 249 248 253 258 259 263 277 280 253 245 246 234 248 252 267 268 261 241 244 268 268 264 259 267 282 299 308 316 335 327 330 337 342 345 354 360 358 351 352 348
273 258 260 256 257 249 255 259 259 265 262 254 243 244 238 262 244 250 261 263 256 253 268 257 256 256 264 267 289 309 312 327 318 327 336 340 350 357 352 356 353 339 338
269 262 259 264 275 266 254 245 253 261 266 251 245 233 246 268 250 244 251 259 252 256 266 256 260 259 290 248 281 288 293 311 318 322 333 341 342 346 339 342 341 340 338
290 260 265 264 267 260 265 251 243 247 253 258 242 249 252 250 244 245 243 251 249 252 252 242 247 249 246 242 263 272 284 301 313 323 333 340 344 352 348 341 346 334 337
280 278 267 260 261 254 259 261 245 237 245 248 250 255 249 251 245 240 240 241 241 236 234 216 211 219 224 236 251 271 281 300 314 324 334 341 351 352 349 347 340 335 328
283 297 272 267 257 265 261 259 265 258 254 247 249 246 243 246 239 233 241 227 228 229 216 212 210 223 240 255 257 276 280 296 314 328 331 340 340 357 346 340 343 341 337
280 306 313 270 267 262 258 258 257 264 260 254 247 250 243 232 231 227 217 214 215 217 228 209 217 224 251 258 264 271 279 299 323 327 333 342 335 3 338 348 344 339 340
302 299 311 300 294 266 269 255 256 247 258 256 249 240 237 233 229 221 214 212 208 214 231 232 227 247 265 252 257 263 277 306 327 327 339 333 355 2 353 344 348 341 339
307 310 307 308 300 285 263 260 253 250 254 258 247 244 243 239 226 195 225 225 194 236 249 232 228 240 258 239 241 256 284 331 329 337 343 346 1 2 356 351 351 348 342
299 300 312 310 297 290 278 262 258 251 254 254 249 246 247 247 251 237 192 194 200 215 232 220 233 232 238 237 241 252 301 340 342 351 348 355 1 7 5 355 359 352 351
297 302 302 305 314 284 269 274 257 259 243 249 255 252 245 243 243 241 222 216 211 206 205 207 218 223 234 227 245 249 310 344 2 356 6 14 10 10 3 358 3 358 356
302 300 305 305 306 299 281 281 250 232 242 244 248 248 246 247 250 257 229 209 206 208 203 211 215 221 219 229 235 242 352 37 16 18 27 20 15 12 2 3 3 353 355
304 304 307 306 298 290 300 273 236 247 242 246 246 241 243 244 239 244 238 226 204 209 211 216 217 212 222 226 225 227 120 53 39 42 31 24 17 15 12 12 9 8 7
303 304 304 305 302 290 276 279 246 255 256 246 248 238 239 240 237 237 249 249 236 213 219 213 207 212 219 216 214 187 131 88 56 41 33 24 19 18 16 12 14 16 14
304 304 308 303 302 295 275 277 264 241 258 251 245 242 237 231 235 237 242 249 243 239 220 217 212 213 214 205 202 163 142 99 60 43 34 25 25 19 14 13 16 20 17
300 295 295 295 299 299 276 266 270 254 247 249 229 238 238 232 230 235 244 249 244 238 228 220 218 218 206 199 189 155 150 117 68 44 33 30 25 21 15 14 16 20 20
295 292 288 286 290 294 276 264 270 256 237 234 232 230 236 229 228 231 238 244 234 228 229 231 220 204 198 191 178 162 156 154 67 44 32 31 25 16 18 18 18 21 23
295 295 293 288 285 289 282 268 268 268 252 238 230 233 230 230 224 223 233 234 226 226 229 237 207 191 179 169 170 159 174 169 123 51 36 30 28 24 21 22 23 22 22
296 295 291 289 287 289 285 272 263 270 259 246 242 239 233 232 231 227 236 231 222 221 228 226 191 180 175 165 166 162 172 170 155 63 58 47 37 25 25 29 28 24 20
297 293 292 291 294 286 288 264 261 264 256 248 240 229 229 227 228 234 230 227 212 222 217 203 180 176 168 167 162 162 154 158 145 130 73 60 34 30 33 31 31 25 24
297 294 296 301 292 289 270 254 260 256 250 256 246 233 214 233 226 231 220 225 235 230 222 193 182 176 167 156 157 158 151 154 162 161 95 74 36 35 33 32 29 27 27
294 297 301 293 293 282 265 255 255 246 236 250 249 254 244 249 215 210 208 223 220 222 225 195 178 171 158 155 155 160 153 143 154 152 100 84 53 41 38 34 29 31 30
294 293 301 299 293 274 248 225 178 222 221 228 302 190 184 216 208 195 198 208 206 183 177 167 163 156 154 152 154 160 145 138 131 133 110 94 87 54 44 35 32 31 32
282 292 278 291 294 256 175 197 130 146 213 182 158 192 180 214 207 191 195 185 155 138 134 135 148 144 148 151 148 150 142 131 120 128 152 123 118 60 51 35 30 32 38
300 278 276 275 270 171 158 163 140 181 234 211 194 210 205 197 190 198 192 179 143 135 144 143 148 144 139 134 136 136 141 145 124 119 150 136 106 33 57 41 33 43 51